EW6790 Weather Reports


Display with metric or nautical units.
time (UTC)temp
F
wind
direction
speed
MPH
gust
MPH
rain 1hr
in
rain 24hr
in
rain mn
in
humidity
%
barometer
mb
20260903211600 86 213 10.0 19.0 0.00 0.05 0.00 69 1006.0
20260903210042 86 199 13.0 20.0 0.00 0.05 0.00 70 1005.7
20260903204541 87 226 10.0 19.0 0.00 0.05 0.00 70 1005.5
20260903203022 86 205 12.0 19.0 0.00 0.05 0.00 68 1005.9
20260903201529 86 220 9.0 23.0 0.00 0.05 0.00 70 1005.9
20260903200003 86 192 15.0 25.0 0.00 0.05 0.00 70 1005.4
20260903194604 85 180 16.0 0.0 0.00 0.00 0.00 71 1005.6
20260903193037 85 208 13.0 22.0 0.00 0.05 0.00 70 1006.0
20260903191536 84 200 14.0 21.0 0.00 0.05 0.00 71 1006.2
20260903190003 84 177 15.0 28.0 0.00 0.05 0.00 70 1006.2
20260903184503 84 172 15.0 27.0 0.00 0.05 0.00 69 1006.1
20260903183043 84 208 20.0 27.0 0.00 0.05 0.00 70 1006.2
20260903181546 83 178 14.0 25.0 0.00 0.05 0.00 72 1006.5
20260903180043 82 169 10.0 23.0 0.00 0.05 0.00 76 1006.5
20260903174516 80 209 12.0 20.0 0.00 0.05 0.00 76 1006.4
20260903173102 80 174 15.0 24.0 0.00 0.05 0.00 75 1006.4
20260903171553 81 176 15.0 26.0 0.00 0.05 0.05 73 1006.6
20260903170100 81 194 15.0 23.0 0.00 0.05 0.05 76 1006.3
20260903164632 79 179 13.0 21.0 0.00 0.05 0.05 78 1006.7
20260903163012 79 154 18.0 26.0 0.00 0.05 0.05 76 1007.0
20260903161510 81 193 13.0 31.0 0.00 0.05 0.05 74 1007.7
20260903160054 79 183 19.0 28.0 0.00 0.05 0.05 75 1007.8
20260903154556 79 193 10.0 25.0 0.00 0.05 0.05 77 1007.9
20260903153034 78 181 10.0 24.0 0.00 0.05 0.05 80 1007.8
20260903151544 77 167 11.0 21.0 0.00 0.05 0.05 83 1007.8
20260903150015 77 134 10.0 23.0 0.00 0.05 0.05 84 1008.1
20260903144520 76 195 9.0 20.0 0.00 0.05 0.05 86 1008.1
20260903143100 75 134 9.0 19.0 0.00 0.05 0.05 85 1008.0
20260903141556 75 113 8.0 17.0 0.01 0.05 0.05 87 1007.8
20260903140051 73 129 9.0 22.0 0.04 0.05 0.05 87 1008.0
20260903134542 72 167 9.0 18.0 0.04 0.05 0.05 87 1007.9
20260903133019 71 191 11.0 17.0 0.04 0.05 0.05 87 1007.6
20260903131517 72 130 6.0 13.0 0.03 0.04 0.04 87 1008.7
20260903130100 73 186 4.0 10.0 0.00 0.01 0.01 87 1008.9
20260903124608 72 165 4.0 10.0 0.00 0.01 0.01 87 1008.5
20260903123042 0 0.0 0.0 0.00 0.01 0.01 1008.0
20260903121537 0 0.0 0.0 0.00 0.01 0.01 1008.2
20260903120036 0 0.0 0.0 0.00 0.01 0.01 1008.3
20260903114540 0 0.0 0.0 0.00 0.01 0.01 1008.1
20260903113024 0 0.0 0.0 0.00 0.01 0.01 1008.1
20260903111520 0 0.0 0.0 0.00 0.01 0.01 1007.8
20260903110015 0 0.0 0.0 0.00 0.01 0.01 1008.6
20260903104511 0 0.0 0.0 0.00 0.01 0.01 1008.4
20260903103049 0 0.0 0.0 0.00 0.01 0.01 1008.7
20260903101545 0 0.0 0.0 0.01 0.01 0.01 1009.4
20260903100030 0 0.0 0.0 0.01 0.01 0.01 1009.8
20260903094524 73 105 7.0 20.0 0.01 0.01 0.01 78 1008.8
20260903093003 72 175 11.0 18.0 0.01 0.01 0.01 84 1007.8
20260903091600 72 210 10.0 19.0 0.00 0.00 0.00 87 1008.8
20260903090040 73 249 4.0 16.0 0.00 0.00 0.00 86 1009.4
20260903084538 75 197 12.0 18.0 0.00 0.00 0.00 87 1008.9
20260903083020 74 238 3.0 8.0 0.00 0.00 0.00 86 1009.0
20260903081519 75 172 6.0 7.0 0.00 0.00 0.00 87 1007.7
20260903074604 73 134 4.0 8.0 0.00 0.00 0.00 70 1007.7
20260903073052 73 183 1.0 5.0 0.00 0.00 0.00 71 1007.6
20260903071548 73 143 3.0 7.0 0.00 0.00 0.00 73 1007.6
20260903070046 73 131 4.0 8.0 0.00 0.00 0.00 72 1007.9
20260903064544 73 163 3.0 5.0 0.00 0.00 0.00 73 1007.9
20260903063044 73 160 4.0 6.0 0.00 0.00 0.00 69 1008.0
20260903061543 73 170 2.0 4.0 0.00 0.97 0.00 66 1007.9
20260903060042 72 126 1.0 4.0 0.00 0.97 0.00 70 1008.0
20260903054541 73 129 2.0 4.0 0.00 0.97 0.00 69 1008.0
20260903053023 73 114 0.0 2.0 0.00 0.97 0.00 66 1008.0
20260903051521 73 116 2.0 4.0 0.00 1.32 0.00 68 1008.0
20260903050003 73 106 1.0 3.0 0.00 1.32 0.00 71 1008.1
20260903044502 73 113 2.0 4.0 0.00 1.32 0.00 70 1008.1
20260903043101 74 118 3.0 4.0 0.00 1.32 0.00 71 1008.1
20260903041544 73 113 2.0 4.0 0.00 1.33 0.00 72 1008.2
20260903040043 73 113 1.0 4.0 0.00 1.33 0.00 74 1008.2
20260903034523 74 127 2.0 4.0 0.00 1.33 0.00 78 1008.3
20260903033031 74 113 3.0 4.0 0.00 1.33 0.00 80 1008.4
20260903031501 75 120 3.0 5.0 0.00 1.33 0.00 83 1008.3
20260903030100 75 116 2.0 4.0 0.00 1.33 0.00 83 1008.4
20260903024545 75 136 2.0 4.0 0.00 1.33 0.00 84 1008.3
20260903023040 76 148 3.0 4.0 0.00 1.33 0.00 85 1008.3
20260903021533 76 128 2.0 4.0 0.00 1.33 0.00 85 1008.2
20260903020019 77 107 2.0 4.0 0.00 1.33 0.00 86 1008.1
20260903014502 77 136 2.0 4.0 0.00 1.33 0.00 86 1007.9
20260903013100 77 132 3.0 5.0 0.00 1.33 0.00 86 1007.7
20260903011539 78 108 2.0 5.0 0.00 1.33 0.00 86 1007.7
20260903010037 79 130 2.0 5.0 0.00 1.33 0.00 85 1007.6
20260903004521 81 133 2.0 4.0 0.00 1.33 0.00 83 1007.7
20260903003012 83 134 1.0 5.0 0.00 1.33 0.00 80 1007.7
20260903001556 84 135 0.0 3.0 0.00 1.33 0.00 76 1007.8
20260903000054 86 180 3.0 6.0 0.00 1.33 0.00 73 1007.8
20260902234537 86 167 3.0 6.0 0.00 1.33 0.00 71 1007.8
20260902233036 87 169 4.0 9.0 0.00 1.33 0.00 70 1007.9
20260902231525 87 215 7.0 11.0 0.00 1.33 0.00 68 1007.8
20260902230025 88 168 5.0 9.0 0.00 1.33 0.00 69 1007.9
20260902224524 88 165 4.0 12.0 0.00 1.33 0.00 68 1008.0
20260902223022 88 120 6.0 10.0 0.00 1.33 0.00 65 1007.9
20260902221521 88 162 5.0 11.0 0.00 1.33 0.00 64 1008.0
20260902220020 88 198 7.0 12.0 0.00 1.33 0.00 63 1008.2
20260902214526 88 153 7.0 13.0 0.00 1.33 0.00 64 1008.2
20260902213017 89 159 6.0 10.0 0.00 1.33 0.00 66 1008.3